This is the latest recevied weather packets stored in our database for station/object AD8BV. If no packets are shown the sender has not sent any weather packets the latest 10 day(s).
| Time | Temp. | Humidity | Pressure | Rain* | Wind** | Luminosity | Snow |
|---|---|---|---|---|---|---|---|
| 1778013797 | 11.67° C | 52% | 1009.6 hPa | 0 mm | - | 114 W/m² | - |
| 1778013494 | 11.67° C | 53% | 1010.1 hPa | 0 mm | - | 106 W/m² | - |
| 1778013190 | 11.67° C | 51% | 1009.7 hPa | 0 mm | - | 96 W/m² | - |
| 1778012887 | 12.22° C | 53% | 1009.7 hPa | 0 mm | - | 94 W/m² | - |
| 1778012583 | 12.22° C | 53% | 1009.7 hPa | 0 mm | - | 124 W/m² | - |
| 1778012280 | 12.22° C | 51% | 1009.8 hPa | 0 mm | - | 158 W/m² | - |
| 1778011977 | 12.22° C | 52% | 1010 hPa | 0 mm | - | 142 W/m² | - |
| 1778011676 | 12.78° C | 56% | 1009.7 hPa | 0 mm | - | 154 W/m² | - |
| 1778011372 | 12.78° C | 53% | 1009.6 hPa | 0 mm | - | 134 W/m² | - |
| 1778011067 | 12.78° C | 53% | 1009.7 hPa | 0 mm | - | 166 W/m² | - |
| 1778010765 | 12.78° C | 55% | 1009.5 hPa | 0 mm | - | 190 W/m² | - |
| 1778010462 | 12.78° C | 58% | 1009.7 hPa | 0 mm | - | 207 W/m² | - |
| 1778010159 | 12.22° C | 56% | 1009.4 hPa | 0 mm | - | 249 W/m² | - |
| 1778009854 | 12.22° C | 56% | 1009.6 hPa | 0 mm | - | 184 W/m² | - |
| 1778009552 | 12.22° C | 58% | 1009.6 hPa | 0 mm | - | 152 W/m² | - |
| 1778009250 | 12.22° C | 56% | 1009.9 hPa | 0 mm | - | 108 W/m² | - |
| 1778008948 | 12.22° C | 57% | 1009.7 hPa | 0 mm | - | 99 W/m² | - |
| 1778008646 | 12.22° C | 57% | 1009.7 hPa | 0 mm | - | 92 W/m² | - |
| 1778008344 | 12.22° C | 62% | 1009.6 hPa | 0 mm | - | 97 W/m² | - |
| 1778008040 | 12.22° C | 58% | 1009.7 hPa | 0 mm | - | 102 W/m² | - |
| 1778007740 | 12.22° C | 61% | 1009.8 hPa | 0 mm | - | 138 W/m² | - |
| 1778007436 | 12.78° C | 58% | 1009.7 hPa | 0 mm | - | 136 W/m² | - |
| 1778007133 | 12.78° C | 61% | 1009.9 hPa | 0 mm | - | 162 W/m² | - |
| 1778006829 | 12.22° C | 65% | 1009.8 hPa | 0 mm | - | 206 W/m² | - |
| 1778006527 | 12.78° C | 62% | 1009.7 hPa | 0 mm | - | 163 W/m² | - |
* Rain latest hour (hover to see other rain measurements)
** Current wind speed in m/s (hover to see current wind gust speed)